FW2103 Weather Reports


time (UTC)temp
C
wind
direction
speed
KPH
gust
KPH
rain 1hr
cm
rain 24hr
cm
rain mn
cm
humidity
%
barometer
mb
20260903011320 27 73 0.0 0.0 0.00 0.00 0.00 82 1017.0
20260903010816 27 73 0.0 0.0 0.00 0.00 0.00 81 1017.1
20260903010312 27 73 0.0 0.0 0.00 0.00 0.00 81 1017.0
20260903005810 27 73 0.0 0.0 0.00 0.00 0.00 81 1017.0
20260903005306 27 73 0.0 0.0 0.00 0.00 0.00 81 1017.0
20260903004801 27 73 0.0 0.0 0.00 0.00 0.00 82 1016.8
20260903004256 27 73 0.0 0.0 0.00 0.00 0.00 82 1017.0
20260903003751 27 73 0.0 0.0 0.00 0.00 0.00 80 1016.8
20260903003246 27 73 0.0 0.0 0.00 0.00 0.00 80 1016.9
20260903002741 27 73 0.0 0.0 0.00 0.00 0.00 80 1016.8
20260903002235 28 73 0.0 0.0 0.00 0.00 0.00 80 1016.8
20260903001731 28 73 0.0 0.0 0.00 0.00 0.00 80 1017.1
20260903001230 28 73 0.0 0.0 0.00 0.00 0.00 80 1016.7
20260903000726 28 73 0.0 0.0 0.00 0.00 0.00 79 1017.0
20260903000226 29 73 0.0 0.0 0.00 0.00 0.00 78 1016.7
20260902235724 29 73 0.0 0.0 0.00 0.00 0.00 77 1017.0
20260902235219 30 73 0.0 0.0 0.00 0.00 0.00 75 1017.0
20260902234719 30 73 0.0 0.0 0.00 0.00 0.00 74 1017.0
20260902234218 30 73 0.0 0.0 0.00 0.00 0.00 74 1016.9
20260902233717 30 73 0.0 0.0 0.00 0.00 0.00 74 1016.8
20260902233212 30 74 0.0 0.0 0.00 0.00 0.00 73 1017.1
20260902232711 31 73 0.0 0.0 0.00 0.00 0.00 73 1017.1
20260902232205 31 74 0.0 0.0 0.00 0.00 0.00 71 1017.2
20260902231659 31 63 0.0 0.0 0.00 0.00 0.00 70 1017.1
20260902231154 31 81 0.0 0.0 0.00 0.00 0.00 68 1017.1
20260902230649 31 68 0.0 0.0 0.00 0.00 0.00 68 1016.9
20260902230148 31 97 0.0 0.0 0.00 0.00 0.00 67 1017.4
20260902225643 32 77 0.0 0.0 0.00 0.00 0.00 67 1017.1
20260902225142 32 86 0.0 0.0 0.00 0.00 0.00 65 1017.1
20260902224641 32 75 0.0 0.0 0.00 0.00 0.00 64 1017.2
20260902224137 33 112 0.0 0.0 0.00 0.00 0.00 62 1017.0
20260902223633 33 100 0.0 0.0 0.00 0.00 0.00 60 1017.1
20260902223132 33 82 0.0 0.0 0.00 0.00 0.00 60 1017.3
20260902222632 33 67 0.0 0.0 0.00 0.00 0.00 59 1017.2
20260902222131 33 142 0.0 0.0 0.00 0.00 0.00 59 1017.1
20260902221631 33 35 0.0 0.0 0.00 0.00 0.00 58 1017.1
20260902221126 33 37 0.0 0.0 0.00 0.00 0.00 58 1017.4
20260902220621 33 166 0.0 0.0 0.00 0.00 0.00 59 1017.2
20260902220115 34 140 0.0 0.0 0.00 0.00 0.00 58 1017.4
20260902215606 34 51 0.0 0.0 0.00 0.00 0.00 56 1017.5
20260902215055 34 76 0.0 0.0 0.00 0.00 0.00 57 1017.3
20260902214556 34 33 0.0 0.0 0.00 0.00 0.00 55 1017.3
20260902214055 34 90 0.0 0.0 0.00 0.00 0.00 57 1017.3
20260902213551 33 47 0.0 0.0 0.00 0.00 0.00 57 1017.2
20260902213050 33 137 0.0 0.0 0.00 0.00 0.00 59 1017.2
20260902212545 35 101 0.0 0.0 0.00 0.00 0.00 56 1017.3
20260902212042 35 39 0.0 0.0 0.00 0.00 0.00 53 1017.3
20260902211537 35 235 1.6 1.6 0.00 0.00 0.00 55 1017.5
20260902211032 35 36 0.0 0.0 0.00 0.00 0.00 55 1017.5
20260902210531 35 61 1.6 1.6 0.00 0.00 0.00 57 1017.5
20260902210026 35 38 0.0 0.0 0.00 0.00 0.00 54 1017.6
20260902205520 35 36 0.0 0.0 0.00 0.00 0.00 55 1017.5
20260902205016 35 357 1.6 3.2 0.00 0.00 0.00 53 1017.6
20260902204515 35 351 0.0 1.6 0.00 0.00 0.00 53 1017.5
20260902204011 36 59 0.0 0.0 0.00 0.00 0.00 54 1017.5
20260902203506 35 347 1.6 3.2 0.00 0.00 0.00 54 1017.4
20260902203005 36 92 0.0 0.0 0.00 0.00 0.00 53 1017.5
20260902202501 35 74 0.0 0.0 0.00 0.00 0.00 54 1017.5
20260902201957 35 83 0.0 0.0 0.00 0.00 0.00 55 1017.6
20260902201457 34 82 0.0 0.0 0.00 0.00 0.00 57 1017.8
20260902200952 33 64 0.0 0.0 0.00 0.00 0.00 55 1017.8
20260902200447 34 90 1.6 1.6 0.00 0.00 0.00 57 1017.9
20260902195942 33 166 1.6 3.2 0.00 0.00 0.00 56 1017.9
20260902195438 34 114 3.2 3.2 0.00 0.00 0.00 56 1018.0
20260902194932 35 9 0.0 0.0 0.00 0.00 0.00 55 1018.3
20260902194431 35 4 1.6 1.6 0.00 0.00 0.00 53 1018.2
20260902193927 35 46 0.0 0.0 0.00 0.00 0.00 54 1018.2
20260902193423 35 349 1.6 1.6 0.00 0.00 0.00 55 1017.9
20260902192921 35 47 0.0 0.0 0.00 0.00 0.00 55 1018.1
20260902192420 36 7 0.0 0.0 0.00 0.00 0.00 56 1018.1
20260902191919 35 80 0.0 0.0 0.00 0.00 0.00 54 1018.1
20260902191415 34 40 0.0 0.0 0.00 0.00 0.00 58 1018.4
20260902190910 35 76 0.0 0.0 0.00 0.00 0.00 55 1018.3
20260902190405 34 334 3.2 3.2 0.00 0.00 0.00 54 1018.6
20260902185901 35 306 1.6 3.2 0.00 0.00 0.00 54 1018.5
20260902185356 35 130 0.0 0.0 0.00 0.00 0.00 55 1018.4
20260902184851 35 272 1.6 1.6 0.00 0.00 0.00 55 1018.6
20260902184347 35 56 0.0 0.0 0.00 0.00 0.00 59 1018.5
20260902183842 35 318 1.6 1.6 0.00 0.00 0.00 55 1018.6
20260902183339 35 178 0.0 0.0 0.00 0.00 0.00 54 1018.6
20260902182834 35 351 3.2 3.2 0.00 0.00 0.00 55 1018.8
20260902182330 35 7 3.2 3.2 0.00 0.00 0.00 55 1018.7
20260902181826 34 0 1.6 3.2 0.00 0.00 0.00 55 1018.9
20260902181322 35 118 1.6 3.2 0.00 0.00 0.00 57 1018.7
20260902180821 33 308 1.6 3.2 0.00 0.00 0.00 56 1018.8
20260902180317 33 137 0.0 0.0 0.00 0.00 0.00 58 1018.9
20260902175813 33 186 0.0 0.0 0.00 0.00 0.00 58 1018.6
20260902175308 34 176 4.8 4.8 0.00 0.00 0.00 61 1018.9
20260902174803 33 161 0.0 0.0 0.00 0.00 0.00 60 1018.7
20260902174300 34 337 3.2 4.8 0.00 0.00 0.00 57 1019.0
20260902173755 33 40 0.0 0.0 0.00 0.00 0.00 60 1019.1
20260902173249 33 317 0.0 1.6 0.00 0.00 0.00 59 1019.0
20260902172744 34 67 1.6 3.2 0.00 0.00 0.00 57 1019.0
20260902172244 34 174 0.0 0.0 0.00 0.00 0.00 59 1019.1
20260902171738 33 22 1.6 1.6 0.00 0.00 0.00 61 1019.3
20260902171233 33 33 0.0 0.0 0.00 0.00 0.00 65 1019.1
20260902170730 33 185 3.2 3.2 0.00 0.00 0.00 64 1019.5
20260902170225 33 30 1.6 1.6 0.00 0.00 0.00 64 1019.5
20260902165721 32 351 1.6 1.6 0.00 0.00 0.00 63 1019.1
20260902165214 32 125 0.0 0.0 0.00 0.00 0.00 63 1019.4
20260902164714 32 83 0.0 0.0 0.00 0.00 0.00 66 1019.4
20260902164209 32 166 0.0 0.0 0.00 0.00 0.00 65 1019.7
20260902163704 32 329 1.6 3.2 0.00 0.00 0.00 63 1019.6
20260902163203 32 149 0.0 0.0 0.00 0.00 0.00 65 1019.8
20260902162702 32 358 0.0 1.6 0.00 0.00 0.00 66 1019.8
20260902162157 32 302 4.8 4.8 0.00 0.00 0.00 64 1020.0
20260902161652 32 14 0.0 0.0 0.00 0.00 0.00 67 1019.8
20260902161147 32 121 0.0 0.0 0.00 0.00 0.00 68 1020.0
20260902160643 32 38 0.0 0.0 0.00 0.00 0.00 68 1020.0
20260902160138 32 343 3.2 3.2 0.00 0.00 0.00 68 1020.2
20260902155637 31 343 3.2 3.2 0.00 0.00 0.00 69 1020.1
20260902155136 31 26 0.0 1.6 0.00 0.00 0.00 67 1019.9
20260902154631 31 353 1.6 1.6 0.00 0.00 0.00 67 1020.1
20260902154126 31 17 4.8 4.8 0.00 0.00 0.00 68 1020.0
20260902153625 31 21 3.2 4.8 0.00 0.00 0.00 68 1020.1
20260902153120 31 38 0.0 0.0 0.00 0.00 0.00 69 1020.0
20260902152616 31 322 0.0 1.6 0.00 0.00 0.00 69 1019.9
20260902152112 31 10 0.0 0.0 0.00 0.00 0.00 71 1019.9
20260902151608 31 49 1.6 1.6 0.00 0.00 0.00 74 1019.9
20260902151107 30 61 0.0 0.0 0.00 0.00 0.00 73 1020.0
20260902150601 30 20 0.0 0.0 0.00 0.00 0.00 74 1020.0
20260902150058 30 197 0.0 0.0 0.00 0.00 0.00 74 1020.0
20260902145552 30 356 4.8 4.8 0.00 0.00 0.00 75 1020.0
20260902145051 29 41 0.0 0.0 0.00 0.00 0.00 75 1020.2
20260902144548 29 57 0.0 0.0 0.00 0.00 0.00 77 1020.0
20260902144043 28 349 1.6 1.6 0.00 0.00 0.00 77 1019.9
20260902143538 28 347 4.8 8.0 0.00 0.00 0.00 78 1019.9
20260902143034 28 41 0.0 0.0 0.00 0.00 0.00 81 1020.0
20260902142529 27 299 1.6 1.6 0.00 0.00 0.00 81 1020.1
20260902142025 27 0 1.6 3.2 0.00 0.00 0.00 82 1020.0
20260902141524 27 16 0.0 1.6 0.00 0.00 0.00 84 1020.1
20260902141019 27 193 0.0 0.0 0.00 0.00 0.00 84 1019.9
20260902140514 27 77 0.0 0.0 0.00 0.00 0.00 85 1019.7
20260902140010 26 79 0.0 0.0 0.00 0.00 0.00 86 1019.8
20260902135503 26 78 0.0 0.0 0.00 0.00 0.00 86 1019.9
20260902135004 26 83 0.0 0.0 0.00 0.00 0.00 87 1019.7
20260902134459 26 102 0.0 0.0 0.00 0.00 0.00 86 1019.8
20260902133954 26 74 0.0 0.0 0.00 0.00 0.00 87 1019.9
20260902133449 25 91 0.0 0.0 0.00 0.00 0.00 87 1019.9
20260902132943 25 92 0.0 0.0 0.00 0.00 0.00 87 1019.8
20260902132439 25 109 0.0 0.0 0.00 0.00 0.00 88 1020.1
20260902131933 25 101 0.0 0.0 0.00 0.00 0.00 89 1020.0
20260902131430 25 119 0.0 0.0 0.00 0.00 0.00 90 1020.0
20260902130929 25 117 0.0 0.0 0.00 0.00 0.00 89 1020.0
20260902130425 24 118 0.0 0.0 0.00 0.00 0.00 90 1020.0
20260902125920 24 122 0.0 0.0 0.00 0.00 0.00 90 1019.8
20260902125416 24 87 0.0 0.0 0.00 0.00 0.00 91 1019.8
20260902124912 23 88 0.0 0.0 0.00 0.00 0.00 91 1019.6
20260902124408 23 56 0.0 0.0 0.00 0.00 0.00 92 1019.7
20260902123903 23 74 0.0 0.0 0.00 0.00 0.00 92 1019.5
20260902123359 23 74 0.0 0.0 0.00 0.00 0.00 92 1019.5
20260902122857 23 78 0.0 0.0 0.00 0.00 0.00 93 1019.7
20260902122353 23 76 0.0 0.0 0.00 0.00 0.00 93 1019.8
20260902121848 23 75 0.0 0.0 0.00 0.00 0.00 94 1019.6
20260902121343 22 69 0.0 0.0 0.00 0.00 0.00 94 1019.6
20260902120838 22 69 0.0 0.0 0.00 0.00 0.00 95 1019.3
20260902120335 22 68 0.0 0.0 0.00 0.00 0.00 95 1019.6
20260902115834 22 67 0.0 0.0 0.00 0.00 0.00 95 1019.4
20260902115331 22 65 0.0 0.0 0.00 0.00 0.00 95 1019.4
20260902114827 22 65 0.0 0.0 0.00 0.00 0.00 95 1019.5
20260902114323 22 60 0.0 0.0 0.00 0.00 0.00 95 1019.3
20260902113823 22 61 0.0 0.0 0.00 0.00 0.00 95 1019.1
20260902113318 22 59 0.0 0.0 0.00 0.00 0.00 95 1019.1
20260902112817 22 85 0.0 0.0 0.00 0.00 0.00 95 1019.0
20260902112314 22 85 0.0 0.0 0.00 0.00 0.00 95 1018.8
20260902111809 22 85 0.0 0.0 0.00 0.00 0.00 95 1019.0
20260902111306 22 85 0.0 0.0 0.00 0.00 0.00 95 1018.8
20260902110801 22 85 0.0 0.0 0.00 0.00 0.00 94 1018.8
20260902110257 22 85 0.0 0.0 0.00 0.00 0.00 95 1018.9
20260902105756 22 85 0.0 0.0 0.00 0.00 0.00 95 1018.7
20260902105252 22 85 0.0 0.0 0.00 0.00 0.00 95 1018.8
20260902104747 22 85 0.0 0.0 0.00 0.00 0.00 95 1018.7
20260902104243 22 81 0.0 0.0 0.00 0.00 0.00 95 1018.6
20260902103743 22 81 0.0 0.0 0.00 0.00 0.00 95 1018.6
20260902103237 22 81 0.0 0.0 0.00 0.00 0.00 95 1018.5
20260902102733 22 81 0.0 0.0 0.00 0.00 0.00 95 1018.6
20260902102230 22 81 0.0 0.0 0.00 0.00 0.00 95 1018.6
20260902101725 22 81 0.0 0.0 0.00 0.00 0.00 95 1018.5
20260902101220 22 81 0.0 0.0 0.00 0.00 0.00 95 1018.6
20260902100719 22 81 0.0 0.0 0.00 0.00 0.00 95 1018.6
20260902100214 22 81 0.0 0.0 0.00 0.00 0.00 95 1018.6
20260902095713 22 81 0.0 0.0 0.00 0.00 0.00 95 1018.5
20260902095208 22 81 0.0 0.0 0.00 0.00 0.00 95 1018.5
20260902094703 22 81 0.0 0.0 0.00 0.00 0.00 94 1018.4
20260902094200 22 81 0.0 0.0 0.00 0.00 0.00 94 1018.4
20260902093658 22 81 0.0 0.0 0.00 0.00 0.00 94 1018.5
20260902093154 22 81 0.0 0.0 0.00 0.00 0.00 94 1018.6
20260902092649 22 81 0.0 0.0 0.00 0.00 0.00 94 1018.2
20260902092149 23 81 0.0 0.0 0.00 0.00 0.00 93 1018.4
20260902091643 23 81 0.0 0.0 0.00 0.00 0.00 93 1018.4
20260902091140 23 81 0.0 0.0 0.00 0.00 0.00 93 1018.4
20260902090636 23 82 0.0 0.0 0.00 0.00 0.00 92 1018.3
20260902090135 23 82 0.0 0.0 0.00 0.00 0.00 92 1018.3
20260902085630 23 82 0.0 0.0 0.00 0.00 0.00 92 1018.5
20260902085125 23 81 0.0 0.0 0.00 0.00 0.00 92 1018.2
20260902084621 23 81 0.0 0.0 0.00 0.00 0.00 92 1018.2
20260902084116 23 68 0.0 0.0 0.00 0.00 0.00 92 1018.3
20260902083612 23 86 0.0 0.0 0.00 0.00 0.00 91 1018.2
20260902083111 23 85 0.0 0.0 0.00 0.00 0.00 92 1018.1
20260902082606 23 85 0.0 0.0 0.00 0.00 0.00 92 1018.1
20260902082103 23 85 0.0 0.0 0.00 0.00 0.00 92 1018.0
20260902081559 23 85 0.0 0.0 0.00 0.00 0.00 93 1018.1
20260902081059 23 83 0.0 0.0 0.00 0.00 0.00 94 1018.0
20260902080554 23 83 0.0 0.0 0.00 0.00 0.00 94 1018.0
20260902080051 23 83 0.0 0.0 0.00 0.00 0.00 93 1018.0
20260902075550 22 83 0.0 0.0 0.00 0.00 0.00 94 1017.8
20260902075046 22 83 0.0 0.0 0.00 0.00 0.00 94 1018.0
20260902074541 22 83 0.0 0.0 0.00 0.00 0.00 94 1018.1
20260902074037 22 83 0.0 0.0 0.00 0.00 0.00 94 1017.8
20260902073532 22 83 0.0 0.0 0.00 0.00 0.00 94 1017.9
20260902073029 22 83 0.0 0.0 0.00 0.00 0.00 94 1017.9
20260902072524 22 83 0.0 0.0 0.00 0.00 0.00 94 1017.9
20260902072021 22 83 0.0 0.0 0.00 0.00 0.00 93 1017.8
20260902071520 22 83 0.0 0.0 0.00 0.00 0.00 93 1017.8
20260902071016 22 83 0.0 0.0 0.00 0.00 0.00 93 1018.1
20260902070511 22 83 0.0 0.0 0.00 0.00 0.00 93 1018.0
20260902070011 22 83 0.0 0.0 0.00 0.00 0.00 93 1017.8
20260902065500 22 83 0.0 0.0 0.00 0.00 0.00 93 1018.0
20260902064955 22 83 0.0 0.0 0.00 0.00 0.00 93 1018.0
20260902064451 23 83 0.0 0.0 0.00 0.00 0.00 93 1017.9
20260902063946 23 83 0.0 0.0 0.00 0.00 0.00 93 1018.1
20260902063445 23 83 0.0 0.0 0.00 0.00 0.00 93 1018.0
20260902062941 23 83 0.0 0.0 0.00 0.00 0.00 93 1017.8
20260902062440 23 83 0.0 0.0 0.00 0.00 0.00 93 1017.9
20260902061935 23 83 0.0 0.0 0.00 0.00 0.00 93 1018.1
20260902061430 23 83 0.0 0.0 0.00 0.00 0.00 93 1017.9
20260902060926 23 83 0.0 0.0 0.00 0.00 0.00 92 1018.0
20260902060422 23 83 0.0 0.0 0.00 0.00 0.00 92 1018.0
20260902055917 23 83 0.0 0.0 0.00 0.00 0.00 92 1018.2
20260902055414 23 83 0.0 0.0 0.00 0.00 0.00 92 1018.3
20260902054909 23 83 0.0 0.0 0.00 0.00 0.00 91 1018.3
20260902054404 23 83 0.0 0.0 0.00 0.00 0.00 91 1018.3
20260902053859 23 83 0.0 0.0 0.00 0.00 0.00 91 1018.1
20260902053354 23 83 0.0 0.0 0.00 0.00 0.00 90 1017.8
20260902052854 23 83 0.0 0.0 0.00 0.00 0.00 90 1018.2
20260902052349 23 83 0.0 0.0 0.00 0.00 0.00 90 1018.1
20260902051844 23 83 0.0 0.0 0.00 0.00 0.00 90 1018.3
20260902051343 23 83 0.0 0.0 0.00 0.00 0.00 90 1018.2
20260902050838 23 83 0.0 0.0 0.00 0.00 0.00 90 1018.2
20260902050337 23 83 0.0 0.0 0.00 0.00 0.00 90 1018.1
20260902045832 23 83 0.0 0.0 0.00 0.00 0.00 90 1018.2
20260902045328 23 83 0.0 0.0 0.00 0.00 0.00 90 1018.0
20260902044824 23 83 0.0 0.0 0.00 0.00 0.00 91 1018.1
20260902044320 23 83 0.0 0.0 0.00 0.00 0.00 90 1018.2
20260902043820 23 83 0.0 0.0 0.00 0.00 0.00 90 1017.9
20260902043315 24 83 0.0 0.0 0.00 0.00 0.00 90 1018.0
20260902042815 24 83 0.0 0.0 0.00 0.00 0.00 90 1018.3
20260902042310 24 83 0.0 0.0 0.00 0.00 0.00 89 1018.2
20260902041805 24 83 0.0 0.0 0.00 0.00 0.00 89 1018.0
20260902041305 24 83 0.0 0.0 0.00 0.00 0.00 88 1018.2
20260902040803 24 83 0.0 0.0 0.00 0.00 0.00 88 1018.1
20260902040259 24 83 0.0 0.0 0.00 0.00 0.00 88 1018.0
20260902035757 24 83 0.0 0.0 0.00 0.00 0.00 88 1018.0
20260902035254 24 83 0.0 0.0 0.00 0.00 0.00 88 1018.0
20260902034752 25 83 0.0 0.0 0.00 0.00 0.00 88 1018.1
20260902034248 25 83 0.0 0.0 0.00 0.00 0.00 88 1018.1
20260902033745 25 83 0.0 0.0 0.00 0.00 0.00 88 1017.9
20260902033240 25 83 0.0 0.0 0.00 0.00 0.00 87 1018.3
20260902032739 25 83 0.0 0.0 0.00 0.00 0.00 87 1018.2
20260902032234 25 83 0.0 0.0 0.00 0.00 0.00 87 1018.2
20260902031734 25 83 0.0 0.0 0.00 0.00 0.00 87 1018.0
20260902031229 25 83 0.0 0.0 0.00 0.00 0.00 86 1018.0
20260902030726 25 83 0.0 0.0 0.00 0.00 0.00 86 1017.9
20260902030226 25 83 0.0 0.0 0.00 0.00 0.00 86 1018.4
20260902025725 25 83 0.0 0.0 0.00 0.00 0.00 86 1018.2
20260902025220 25 83 0.0 0.0 0.00 0.00 0.00 85 1018.0
20260902024715 25 83 0.0 0.0 0.00 0.00 0.00 86 1018.3
20260902024210 25 83 0.0 0.0 0.00 0.00 0.00 85 1018.2
20260902023706 25 83 0.0 0.0 0.00 0.00 0.00 86 1018.2
20260902023201 25 83 0.0 0.0 0.00 0.00 0.00 86 1018.0
20260902022700 25 83 0.0 0.0 0.00 0.00 0.00 85 1018.1
20260902022156 25 83 0.0 0.0 0.00 0.00 0.00 85 1017.9
20260902021651 25 83 0.0 0.0 0.00 0.00 0.00 85 1018.2
20260902021146 26 83 0.0 0.0 0.00 0.00 0.00 85 1018.1
20260902020643 26 83 0.0 0.0 0.00 0.00 0.00 85 1018.0
20260902020138 26 83 0.0 0.0 0.00 0.00 0.00 85 1018.1
20260902015633 26 83 0.0 0.0 0.00 0.00 0.00 84 1018.0
20260902015130 26 83 0.0 0.0 0.00 0.00 0.00 84 1018.3
20260902014625 26 83 0.0 0.0 0.00 0.00 0.00 84 1017.9
20260902014121 26 83 0.0 0.0 0.00 0.00 0.00 84 1018.2
20260902013620 26 83 0.0 0.0 0.00 0.00 0.00 84 1018.0
20260902013115 26 83 0.0 0.0 0.00 0.00 0.00 83 1017.9
20260902012610 26 83 0.0 0.0 0.00 0.00 0.00 83 1018.0
20260902012106 26 83 0.0 0.0 0.00 0.00 0.00 82 1017.7
20260902011601 26 83 0.0 0.0 0.00 0.00 0.00 81 1017.8